| time (UTC) | temp F | wind direction | speed MPH | gust MPH | rain 1hr in | rain 24hr in | rain mn in | humidity % | barometer mb |
| 20260902072021 | 75 | 31 | 4.0 | 13.0 | 0.78 | 1.40 | 0.80 | 93 | 1013.9 |
| 20260902071514 | 75 | 360 | 5.0 | 13.0 | 0.60 | 1.22 | 0.62 | 93 | 1013.8 |
| 20260902071009 | 75 | 9 | 2.0 | 16.0 | 0.48 | 1.10 | 0.50 | 93 | 1013.6 |
| 20260902070521 | 75 | 71 | 5.0 | 16.0 | 0.34 | 0.96 | 0.36 | 93 | 1013.4 |
| 20260902070036 | 75 | 180 | 3.0 | 13.0 | 0.17 | 0.79 | 0.19 | 93 | 1013.6 |
| 20260902065518 | 75 | 38 | 2.0 | 9.0 | 0.11 | 0.73 | 0.13 | 93 | 1013.3 |
| 20260902065018 | 75 | 334 | 2.0 | 13.0 | 0.08 | 0.70 | 0.10 | 93 | 1013.5 |
| 20260902064507 | 75 | 219 | 3.0 | 14.0 | 0.05 | 0.67 | 0.07 | 93 | 1013.4 |
| 20260902064020 | 76 | 105 | 3.0 | 14.0 | 0.01 | 0.63 | 0.03 | 93 | 1013.3 |
| 20260902063503 | 76 | 41 | 2.0 | 14.0 | 0.00 | 0.62 | 0.02 | 94 | 1013.2 |
| 20260902063006 | 76 | 155 | 6.0 | 14.0 | 0.01 | 0.62 | 0.02 | 94 | 1013.3 |
| 20260902062506 | 76 | 101 | 2.0 | 11.0 | 0.01 | 0.62 | 0.02 | 94 | 1013.3 |
| 20260902062007 | 76 | 230 | 2.0 | 10.0 | 0.01 | 0.62 | 0.02 | 94 | 1013.3 |
| 20260902061514 | 76 | 173 | 3.0 | 10.0 | 0.01 | 0.62 | 0.02 | 94 | 1013.1 |
| 20260902061015 | 76 | 118 | 2.0 | 5.0 | 0.02 | 0.62 | 0.02 | 94 | 1013.1 |
| 20260902060511 | 76 | 316 | 1.0 | 8.0 | 0.02 | 0.62 | 0.02 | 94 | 1013.3 |
| 20260902060022 | 76 | 173 | 2.0 | 8.0 | 0.02 | 0.62 | 0.02 | 94 | 1013.3 |
| 20260902055513 | 76 | 43 | 2.0 | 6.0 | 0.02 | 0.62 | 0.02 | 93 | 1013.2 |
| 20260902055021 | 76 | 32 | 3.0 | 7.0 | 0.02 | 0.62 | 0.02 | 93 | 1013.2 |
| 20260902054525 | 76 | 87 | 1.0 | 7.0 | 0.02 | 0.62 | 0.02 | 93 | 1013.3 |
| 20260902054019 | 76 | 84 | 0.0 | 6.0 | 0.03 | 0.62 | 0.02 | 93 | 1013.4 |
| 20260902053517 | 76 | 146 | 1.0 | 5.0 | 0.03 | 0.62 | 0.02 | 93 | 1013.4 |
| 20260902053032 | 76 | 58 | 1.0 | 11.0 | 0.03 | 0.61 | 0.01 | 93 | 1013.4 |
| 20260902052503 | 76 | 40 | 2.0 | 11.0 | 0.03 | 0.61 | 0.01 | 93 | 1013.3 |
| 20260902052015 | 76 | 75 | 2.0 | 9.0 | 0.03 | 0.61 | 0.01 | 93 | 1013.3 |
| 20260902051509 | 76 | 226 | 2.0 | 9.0 | 0.03 | 0.61 | 0.01 | 93 | 1013.3 |
| 20260902051018 | 76 | 88 | 2.0 | 7.0 | 0.02 | 0.60 | 0.00 | 93 | 1013.3 |
| 20260902050516 | 76 | 94 | 2.0 | 10.0 | 0.03 | 0.60 | 0.00 | 93 | 1013.4 |
| 20260902050020 | 76 | 169 | 2.0 | 10.0 | 0.03 | 0.60 | 0.00 | 93 | 1013.5 |
| 20260902045519 | 76 | 67 | 1.0 | 11.0 | 0.04 | 0.60 | 0.60 | 93 | 1013.5 |
| 20260902045012 | 76 | 63 | 3.0 | 11.0 | 0.04 | 0.60 | 0.60 | 93 | 1013.5 |
| 20260902044537 | 76 | 78 | 2.0 | 11.0 | 0.05 | 0.60 | 0.60 | 93 | 1013.5 |
| 20260902044013 | 76 | 47 | 2.0 | 6.0 | 0.04 | 0.58 | 0.58 | 93 | 1013.4 |
| 20260902043511 | 76 | 30 | 2.0 | 12.0 | 0.05 | 0.58 | 0.58 | 93 | 1013.3 |
| 20260902043031 | 76 | 103 | 3.0 | 12.0 | 0.04 | 0.58 | 0.58 | 93 | 1013.4 |
| 20260902042518 | 76 | 58 | 1.0 | 10.0 | 0.05 | 0.58 | 0.58 | 93 | 1013.3 |
| 20260902042018 | 76 | 94 | 2.0 | 9.0 | 0.06 | 0.58 | 0.58 | 93 | 1013.2 |
| 20260902041537 | 76 | 182 | 2.0 | 10.0 | 0.07 | 0.58 | 0.58 | 93 | 1013.1 |
| 20260902041018 | 76 | 81 | 2.0 | 10.0 | 0.08 | 0.58 | 0.58 | 93 | 1013.0 |
| 20260902040517 | 76 | 103 | 1.0 | 8.0 | 0.07 | 0.57 | 0.57 | 93 | 1013.0 |
| 20260902040035 | 76 | 30 | 2.0 | 13.0 | 0.08 | 0.57 | 0.57 | 93 | 1013.1 |
| 20260902035510 | 76 | 115 | 2.0 | 13.0 | 0.07 | 0.56 | 0.56 | 93 | 1013.1 |
| 20260902035015 | 76 | 239 | 3.0 | 13.0 | 0.08 | 0.56 | 0.56 | 93 | 1013.1 |
| 20260902034011 | 76 | 100 | 2.0 | 8.0 | 0.09 | 0.55 | 0.55 | 93 | 1013.1 |
| 20260902033834 | 76 | 180 | 1.0 | 9.0 | 0.10 | 0.54 | 0.54 | 93 | 1013.2 |
| 20260902033831 | 76 | 77 | 3.0 | 10.0 | 0.09 | 0.52 | 0.52 | 93 | 1013.0 |
| 20260902033828 | 76 | 92 | 3.0 | 10.0 | 0.09 | 0.52 | 0.52 | 93 | 1013.0 |
| 20260902033824 | 76 | 135 | 2.0 | 7.0 | 0.09 | 0.51 | 0.51 | 93 | 1012.9 |
| 20260902030036 | 76 | 152 | 2.0 | 9.0 | 0.10 | 0.49 | 0.49 | 93 | 1012.9 |
| 20260902025521 | 76 | 36 | 1.0 | 9.0 | 0.12 | 0.49 | 0.49 | 93 | 1013.0 |
| 20260902025006 | 76 | 24 | 1.0 | 7.0 | 0.12 | 0.48 | 0.48 | 93 | 1012.9 |
| 20260902024516 | 76 | 34 | 2.0 | 6.0 | 0.12 | 0.47 | 0.47 | 93 | 1012.8 |
| 20260902024017 | 76 | 117 | 2.0 | 8.0 | 0.12 | 0.46 | 0.46 | 93 | 1012.8 |
| 20260902023511 | 76 | 133 | 3.0 | 8.0 | 0.12 | 0.45 | 0.45 | 93 | 1012.9 |
| 20260902023023 | 76 | 30 | 2.0 | 5.0 | 0.12 | 0.44 | 0.44 | 93 | 1012.8 |
| 20260902022513 | 76 | 67 | 1.0 | 4.0 | 0.15 | 0.44 | 0.44 | 93 | 1012.7 |
| 20260902022015 | 76 | 34 | 1.0 | 5.0 | 0.15 | 0.43 | 0.43 | 93 | 1012.8 |
| 20260902021538 | 76 | 22 | 1.0 | 5.0 | 0.15 | 0.42 | 0.42 | 93 | 1012.8 |
| 20260902021016 | 76 | 35 | 1.0 | 4.0 | 0.14 | 0.41 | 0.41 | 93 | 1012.8 |
| 20260902020516 | 76 | 12 | 1.0 | 7.0 | 0.14 | 0.40 | 0.40 | 92 | 1012.7 |
| 20260902020037 | 76 | 30 | 3.0 | 19.0 | 0.14 | 0.39 | 0.39 | 92 | 1012.7 |
| 20260902015515 | 76 | 13 | 1.0 | 19.0 | 0.12 | 0.37 | 0.37 | 93 | 1012.7 |
| 20260902015016 | 76 | 13 | 2.0 | 6.0 | 0.12 | 0.36 | 0.36 | 92 | 1012.8 |
| 20260902014546 | 76 | 43 | 1.0 | 5.0 | 0.12 | 0.35 | 0.35 | 92 | 1012.8 |
| 20260902014019 | 76 | 36 | 0.0 | 4.0 | 0.11 | 0.34 | 0.34 | 92 | 1012.7 |
| 20260902013518 | 76 | 360 | 1.0 | 10.0 | 0.11 | 0.33 | 0.33 | 92 | 1012.8 |
| 20260902013023 | 76 | 360 | 1.0 | 10.0 | 0.10 | 0.32 | 0.32 | 92 | 1012.8 |
| 20260902012503 | 76 | 360 | 1.0 | 5.0 | 0.08 | 0.29 | 0.29 | 92 | 1013.0 |
| 20260902012001 | 76 | 30 | 1.0 | 5.0 | 0.07 | 0.28 | 0.28 | 92 | 1012.8 |
| 20260902011502 | 76 | 360 | 1.0 | 5.0 | 0.07 | 0.27 | 0.27 | 92 | 1012.8 |
| 20260902011010 | 76 | 28 | 0.0 | 3.0 | 0.07 | 0.27 | 0.27 | 92 | 1012.8 |
| 20260902010502 | 76 | 21 | 0.0 | 4.0 | 0.07 | 0.26 | 0.26 | 92 | 1012.8 |
| 20260902010003 | 76 | 13 | 1.0 | 4.0 | 0.06 | 0.25 | 0.25 | 92 | 1012.7 |
| 20260902005503 | 76 | 360 | 0.0 | 4.0 | 0.06 | 0.25 | 0.25 | 92 | 1012.7 |
| 20260902005004 | 76 | 360 | 1.0 | 4.0 | 0.05 | 0.24 | 0.24 | 92 | 1012.8 |
| 20260902004502 | 77 | 360 | 0.0 | 0.0 | 0.04 | 0.23 | 0.23 | 92 | 1012.7 |
| 20260902004003 | 77 | 74 | 0.0 | 0.0 | 0.04 | 0.23 | 0.23 | 92 | 1012.9 |
| 20260902003502 | 77 | 77 | 0.0 | 0.0 | 0.03 | 0.22 | 0.22 | 92 | 1012.8 |
| 20260902003005 | 77 | 296 | 0.0 | 1.0 | 0.03 | 0.22 | 0.22 | 92 | 1012.8 |
| 20260902002501 | 77 | 295 | 0.0 | 1.0 | 0.02 | 0.21 | 0.21 | 92 | 1012.9 |
| 20260902002002 | 77 | 294 | 0.0 | 1.0 | 0.02 | 0.21 | 0.21 | 92 | 1013.1 |
| 20260902001503 | 77 | 294 | 0.0 | 2.0 | 0.01 | 0.20 | 0.20 | 92 | 1013.2 |
| 20260902001002 | 77 | 291 | 0.0 | 2.0 | 0.01 | 0.20 | 0.20 | 92 | 1013.2 |
| 20260902000502 | 77 | 54 | 0.0 | 2.0 | 0.00 | 0.19 | 0.19 | 92 | 1013.3 |
| 20260902000003 | 77 | 53 | 0.0 | 3.0 | 0.00 | 0.19 | 0.19 | 92 | 1013.4 |
| 20260901235505 | 77 | 60 | 0.0 | 2.0 | 0.00 | 0.19 | 0.19 | 92 | 1013.5 |
| 20260901235003 | 77 | 42 | 0.0 | 2.0 | 0.00 | 0.19 | 0.19 | 92 | 1013.4 |
| 20260901234509 | 78 | 68 | 0.0 | 2.0 | 0.00 | 0.19 | 0.19 | 92 | 1013.3 |
| 20260901234002 | 78 | 37 | 0.0 | 2.0 | 0.00 | 0.19 | 0.19 | 92 | 1013.3 |
| 20260901233501 | 78 | 50 | 0.0 | 2.0 | 0.00 | 0.19 | 0.19 | 92 | 1013.2 |
| 20260901233002 | 78 | 334 | 0.0 | 0.0 | 0.00 | 0.19 | 0.19 | 92 | 1013.2 |
| 20260901232503 | 78 | 51 | 0.0 | 0.0 | 0.00 | 0.19 | 0.19 | 92 | 1013.3 |
| 20260901232003 | 78 | 67 | 0.0 | 0.0 | 0.00 | 0.19 | 0.19 | 92 | 1013.5 |
| 20260901231503 | 78 | 84 | 0.0 | 0.0 | 0.00 | 0.19 | 0.19 | 92 | 1013.5 |
| 20260901231003 | 78 | 161 | 0.0 | 0.0 | 0.00 | 0.19 | 0.19 | 92 | 1013.4 |
| 20260901230502 | 78 | 105 | 0.0 | 0.0 | 0.00 | 0.19 | 0.19 | 92 | 1013.4 |
| 20260901230008 | 78 | 136 | 0.0 | 0.0 | 0.00 | 0.19 | 0.19 | 92 | 1013.4 |
| 20260901225503 | 78 | 292 | 0.0 | 0.0 | 0.00 | 0.19 | 0.19 | 92 | 1013.3 |
| 20260901225002 | 78 | 38 | 0.0 | 0.0 | 0.00 | 0.19 | 0.19 | 92 | 1013.3 |
| 20260901224502 | 78 | 238 | 0.0 | 0.0 | 0.00 | 0.19 | 0.19 | 92 | 1013.4 |
| 20260901224002 | 78 | 237 | 0.0 | 0.0 | 0.00 | 0.19 | 0.19 | 92 | 1013.5 |
| 20260901223503 | 78 | 236 | 0.0 | 0.0 | 0.00 | 0.19 | 0.19 | 92 | 1013.5 |
| 20260901223003 | 78 | 236 | 0.0 | 0.0 | 0.00 | 0.19 | 0.19 | 92 | 1013.5 |
| 20260901222502 | 78 | 236 | 0.0 | 0.0 | 0.00 | 0.19 | 0.19 | 1013.5 | |
| 20260901222004 | 0 | 0.0 | 0.0 | 0.00 | 0.19 | 0.19 | 1013.5 | ||
| 20260901221505 | 0 | 0.0 | 0.0 | 0.00 | 0.19 | 0.19 | 1013.6 | ||
| 20260901221002 | 0 | 0.0 | 0.0 | 0.00 | 0.19 | 0.19 | 1013.7 | ||
| 20260901220502 | 0 | 0.0 | 0.0 | 0.00 | 0.19 | 0.19 | 1013.8 | ||
| 20260901220012 | 0 | 0.0 | 0.0 | 0.00 | 0.19 | 0.19 | 1013.9 | ||
| 20260901215503 | 0 | 0.0 | 0.0 | 0.00 | 0.19 | 0.19 | 1013.9 | ||
| 20260901215004 | 0 | 0.0 | 0.0 | 0.00 | 0.19 | 0.19 | 1014.0 | ||
| 20260901214503 | 0 | 0.0 | 0.0 | 0.00 | 0.19 | 0.19 | 1014.0 | ||
| 20260901214003 | 0 | 0.0 | 0.0 | 0.00 | 0.19 | 0.19 | 1014.0 | ||
| 20260901213503 | 0 | 0.0 | 0.0 | 0.00 | 0.19 | 0.19 | 1014.0 | ||
| 20260901213103 | 0 | 0.0 | 0.0 | 0.00 | 0.19 | 0.19 | 1014.2 | ||
| 20260901212518 | 0 | 0.0 | 0.0 | 0.00 | 0.19 | 0.19 | 1014.3 | ||
| 20260901212006 | 0 | 0.0 | 0.0 | 0.03 | 0.19 | 0.19 | 1014.3 | ||
| 20260901211515 | 0 | 0.0 | 0.0 | 0.03 | 0.19 | 0.19 | 1014.3 | ||
| 20260901211008 | 0 | 0.0 | 0.0 | 0.03 | 0.19 | 0.19 | 1014.5 | ||
| 20260901210505 | 0 | 0.0 | 0.0 | 0.03 | 0.19 | 0.19 | 1014.6 | ||
| 20260901210016 | 0 | 0.0 | 0.0 | 0.03 | 0.19 | 0.19 | 1014.6 | ||
| 20260901205503 | 0 | 0.0 | 0.0 | 0.03 | 0.19 | 0.19 | 1014.7 | ||
| 20260901205003 | 0 | 0.0 | 0.0 | 0.03 | 0.19 | 0.19 | 1014.9 | ||
| 20260901204503 | 0 | 0.0 | 0.0 | 0.03 | 0.19 | 0.19 | 1015.0 | ||
| 20260901204002 | 0 | 0.0 | 0.0 | 0.03 | 0.19 | 0.19 | 1014.9 | ||
| 20260901203501 | 0 | 0.0 | 0.0 | 0.03 | 0.19 | 0.19 | 1015.0 | ||
| 20260901203003 | 78 | 0.0 | 0.0 | 0.05 | 0.19 | 0.19 | 91 | 1015.2 | |
| 20260901202502 | 78 | 2.0 | 6.0 | 0.05 | 0.19 | 0.19 | 91 | 1015.3 | |
| 20260901202005 | 79 | 144 | 1.0 | 4.0 | 0.02 | 0.16 | 0.16 | 91 | 1015.4 |
| 20260901201516 | 78 | 64 | 0.0 | 3.0 | 0.02 | 0.16 | 0.16 | 91 | 1014.9 |
| 20260901201003 | 78 | 238 | 0.0 | 2.0 | 0.02 | 0.16 | 0.16 | 91 | 1014.9 |
| 20260901200506 | 78 | 238 | 0.0 | 2.0 | 0.02 | 0.16 | 0.16 | 91 | 1014.9 |
| 20260901200003 | 78 | 238 | 0.0 | 2.0 | 0.03 | 0.16 | 0.16 | 91 | 1015.0 |
| 20260901195503 | 78 | 343 | 0.0 | 2.0 | 0.03 | 0.16 | 0.16 | 91 | 1014.9 |
| 20260901195002 | 78 | 344 | 0.0 | 2.0 | 0.04 | 0.16 | 0.16 | 91 | 1014.9 |
| 20260901194509 | 78 | 260 | 1.0 | 4.0 | 0.07 | 0.16 | 0.16 | 91 | 1015.0 |
| 20260901194004 | 78 | 63 | 1.0 | 4.0 | 0.07 | 0.16 | 0.16 | 90 | 1015.2 |
| 20260901193504 | 78 | 286 | 1.0 | 2.0 | 0.07 | 0.16 | 0.16 | 90 | 1015.4 |
| 20260901193007 | 79 | 332 | 0.0 | 3.0 | 0.14 | 0.14 | 0.14 | 90 | 1015.5 |
| 20260901192507 | 79 | 46 | 0.0 | 3.0 | 0.14 | 0.14 | 0.14 | 90 | 1015.7 |
| 20260901192007 | 79 | 51 | 0.0 | 2.0 | 0.14 | 0.14 | 0.14 | 90 | 1015.8 |
| 20260901191510 | 79 | 63 | 0.0 | 0.0 | 0.14 | 0.14 | 0.14 | 90 | 1015.4 |
| 20260901191015 | 79 | 352 | 0.0 | 2.0 | 0.14 | 0.14 | 0.14 | 90 | 1015.1 |
| 20260901190505 | 78 | 351 | 0.0 | 2.0 | 0.14 | 0.14 | 0.14 | 90 | 1015.1 |
| 20260901190010 | 78 | 273 | 0.0 | 3.0 | 0.13 | 0.13 | 0.13 | 89 | 1015.1 |
| 20260901185508 | 79 | 351 | 0.0 | 5.0 | 0.13 | 0.13 | 0.13 | 88 | 1015.1 |
| 20260901185007 | 79 | 360 | 1.0 | 5.0 | 0.12 | 0.12 | 0.12 | 87 | 1015.3 |
| 20260901184509 | 80 | 109 | 2.0 | 5.0 | 0.09 | 0.09 | 0.09 | 85 | 1015.6 |
| 20260901184007 | 83 | 56 | 1.0 | 9.0 | 0.09 | 0.09 | 0.09 | 77 | 1015.6 |
| 20260901183507 | 88 | 62 | 1.0 | 9.0 | 0.09 | 0.09 | 0.09 | 68 | 1015.7 |
| 20260901183009 | 91 | 38 | 4.0 | 9.0 | 0.00 | 0.00 | 0.00 | 61 | 1015.3 |
| 20260901182507 | 92 | 109 | 1.0 | 4.0 | 0.00 | 0.00 | 0.00 | 59 | 1015.0 |
| 20260901182007 | 92 | 72 | 1.0 | 8.0 | 0.00 | 0.00 | 0.00 | 58 | 1015.0 |
| 20260901181507 | 92 | 19 | 2.0 | 9.0 | 0.00 | 0.00 | 0.00 | 58 | 1015.0 |
| 20260901181007 | 92 | 94 | 2.0 | 9.0 | 0.00 | 0.00 | 0.00 | 58 | 1015.0 |
| 20260901180512 | 91 | 13 | 1.0 | 5.0 | 0.00 | 0.00 | 0.00 | 62 | 1015.0 |
| 20260901180010 | 90 | 29 | 1.0 | 5.0 | 0.00 | 0.00 | 0.00 | 61 | 1015.1 |
| 20260901175509 | 90 | 360 | 1.0 | 5.0 | 0.00 | 0.00 | 0.00 | 60 | 1015.3 |
| 20260901175010 | 91 | 85 | 2.0 | 5.0 | 0.00 | 0.00 | 0.00 | 60 | 1015.3 |
| 20260901174511 | 91 | 133 | 2.0 | 5.0 | 0.00 | 0.00 | 0.00 | 60 | 1015.5 |
| 20260901174009 | 90 | 83 | 1.0 | 5.0 | 0.00 | 0.00 | 0.00 | 61 | 1015.5 |
| 20260901173509 | 89 | 329 | 2.0 | 5.0 | 0.00 | 0.00 | 0.00 | 65 | 1015.5 |
| 20260901173015 | 88 | 92 | 1.0 | 5.0 | 0.00 | 0.00 | 0.00 | 65 | 1015.7 |
| 20260901172512 | 89 | 49 | 1.0 | 5.0 | 0.00 | 0.00 | 0.00 | 64 | 1015.9 |
| 20260901172011 | 90 | 5 | 2.0 | 3.0 | 0.00 | 0.00 | 0.00 | 62 | 1016.0 |
| 20260901171513 | 90 | 65 | 2.0 | 5.0 | 0.00 | 0.00 | 0.00 | 62 | 1016.0 |
| 20260901171010 | 90 | 138 | 2.0 | 6.0 | 0.00 | 0.00 | 0.00 | 61 | 1016.2 |
| 20260901170513 | 91 | 19 | 2.0 | 7.0 | 0.00 | 0.00 | 0.00 | 60 | 1016.2 |
| 20260901170033 | 91 | 27 | 2.0 | 7.0 | 0.00 | 0.00 | 0.00 | 61 | 1016.3 |
| 20260901165509 | 91 | 55 | 2.0 | 5.0 | 0.00 | 0.00 | 0.00 | 63 | 1016.4 |
| 20260901165015 | 90 | 285 | 1.0 | 7.0 | 0.00 | 0.00 | 0.00 | 62 | 1016.6 |
| 20260901164532 | 91 | 51 | 1.0 | 8.0 | 0.00 | 0.00 | 0.00 | 62 | 1016.5 |
| 20260901164009 | 90 | 175 | 1.0 | 8.0 | 0.00 | 0.00 | 0.00 | 65 | 1016.6 |
| 20260901163509 | 88 | 68 | 0.0 | 6.0 | 0.00 | 0.00 | 0.00 | 68 | 1016.7 |
| 20260901163016 | 87 | 81 | 0.0 | 6.0 | 0.00 | 0.00 | 0.00 | 69 | 1016.8 |
| 20260901162510 | 87 | 105 | 1.0 | 8.0 | 0.00 | 0.00 | 0.00 | 69 | 1016.8 |
| 20260901162008 | 87 | 39 | 1.0 | 8.0 | 0.00 | 0.00 | 0.00 | 68 | 1017.0 |
| 20260901161527 | 87 | 124 | 1.0 | 5.0 | 0.00 | 0.00 | 0.00 | 69 | 1016.9 |
| 20260901161002 | 86 | 57 | 1.0 | 3.0 | 0.00 | 0.00 | 0.00 | 70 | 1017.0 |
| 20260901160511 | 86 | 42 | 1.0 | 6.0 | 0.00 | 0.00 | 0.00 | 69 | 1017.1 |
| 20260901160033 | 86 | 67 | 0.0 | 6.0 | 0.00 | 0.00 | 0.00 | 69 | 1017.2 |
| 20260901155508 | 86 | 71 | 1.0 | 5.0 | 0.00 | 0.00 | 0.00 | 69 | 1017.2 |
| 20260901155006 | 87 | 51 | 1.0 | 5.0 | 0.00 | 0.00 | 0.00 | 69 | 1017.1 |
| 20260901154523 | 86 | 17 | 1.0 | 3.0 | 0.00 | 0.00 | 0.00 | 70 | 1017.0 |
| 20260901154003 | 86 | 27 | 1.0 | 5.0 | 0.00 | 0.00 | 0.00 | 71 | 1017.0 |
| 20260901153510 | 86 | 350 | 1.0 | 5.0 | 0.00 | 0.00 | 0.00 | 73 | 1017.1 |
| 20260901153015 | 86 | 84 | 1.0 | 5.0 | 0.00 | 0.00 | 0.00 | 73 | 1017.1 |
| 20260901152509 | 85 | 38 | 0.0 | 4.0 | 0.00 | 0.00 | 0.00 | 73 | 1017.0 |
| 20260901152013 | 85 | 294 | 1.0 | 4.0 | 0.00 | 0.00 | 0.00 | 75 | 1017.1 |
| 20260901151518 | 85 | 44 | 1.0 | 4.0 | 0.00 | 0.00 | 0.00 | 76 | 1017.1 |
| 20260901151015 | 85 | 128 | 1.0 | 4.0 | 0.00 | 0.00 | 0.00 | 76 | 1017.1 |
| 20260901150513 | 85 | 110 | 1.0 | 4.0 | 0.00 | 0.00 | 0.00 | 75 | 1017.1 |
| 20260901150022 | 85 | 88 | 1.0 | 4.0 | 0.00 | 0.00 | 0.00 | 76 | 1017.1 |
| 20260901145512 | 85 | 60 | 1.0 | 4.0 | 0.00 | 0.00 | 0.00 | 77 | 1017.2 |
| 20260901145014 | 85 | 70 | 1.0 | 4.0 | 0.00 | 0.00 | 0.00 | 76 | 1017.4 |
| 20260901144504 | 85 | 198 | 1.0 | 5.0 | 0.00 | 0.00 | 0.00 | 77 | 1017.4 |
| 20260901144003 | 85 | 25 | 1.0 | 5.0 | 0.00 | 0.00 | 0.00 | 79 | 1017.3 |
| 20260901143509 | 84 | 107 | 1.0 | 4.0 | 0.00 | 0.00 | 0.00 | 80 | 1017.3 |
| 20260901143008 | 83 | 46 | 1.0 | 4.0 | 0.00 | 0.00 | 0.00 | 81 | 1017.3 |
| 20260901142512 | 82 | 122 | 0.0 | 3.0 | 0.00 | 0.00 | 0.00 | 83 | 1017.3 |
| 20260901142011 | 81 | 31 | 0.0 | 3.0 | 0.00 | 0.00 | 0.00 | 84 | 1017.3 |
| 20260901141515 | 81 | 61 | 1.0 | 2.0 | 0.00 | 0.00 | 0.00 | 85 | 1017.2 |
| 20260901141015 | 80 | 275 | 1.0 | 2.0 | 0.00 | 0.00 | 0.00 | 88 | 1017.4 |
| 20260901140511 | 79 | 58 | 0.0 | 0.0 | 0.00 | 0.00 | 0.00 | 90 | 1017.4 |
| 20260901140023 | 77 | 173 | 0.0 | 0.0 | 0.00 | 0.00 | 0.00 | 92 | 1017.3 |
| 20260901135514 | 76 | 50 | 0.0 | 0.0 | 0.00 | 0.00 | 0.00 | 92 | 1017.1 |
| 20260901135014 | 76 | 49 | 0.0 | 0.0 | 0.00 | 0.00 | 0.00 | 91 | 1017.2 |
| 20260901134540 | 75 | 49 | 0.0 | 0.0 | 0.00 | 0.00 | 0.00 | 92 | 1017.3 |
| 20260901134015 | 75 | 167 | 0.0 | 0.0 | 0.00 | 0.00 | 0.00 | 91 | 1017.3 |
| 20260901133515 | 74 | 167 | 0.0 | 1.0 | 0.00 | 0.00 | 0.00 | 91 | 1017.2 |
| 20260901133007 | 74 | 167 | 0.0 | 1.0 | 0.00 | 0.00 | 0.00 | 91 | 1017.2 |
| 20260901132518 | 74 | 167 | 0.0 | 1.0 | 0.00 | 0.00 | 0.00 | 91 | 1017.2 |
| 20260901132016 | 73 | 167 | 0.0 | 0.0 | 0.00 | 0.00 | 0.00 | 91 | 1017.1 |
| 20260901131533 | 73 | 167 | 0.0 | 0.0 | 0.00 | 0.00 | 0.00 | 91 | 1017.0 |
| 20260901131024 | 73 | 167 | 0.0 | 0.0 | 0.00 | 0.00 | 0.00 | 90 | 1017.0 |
| 20260901130525 | 73 | 167 | 0.0 | 0.0 | 0.00 | 0.00 | 0.00 | 90 | 1017.1 |
| 20260901130021 | 72 | 167 | 0.0 | 0.0 | 0.00 | 0.00 | 0.00 | 90 | 1017.2 |
| 20260901125512 | 72 | 167 | 0.0 | 0.0 | 0.00 | 0.00 | 0.00 | 90 | 1017.3 |
| 20260901125017 | 72 | 167 | 0.0 | 0.0 | 0.00 | 0.00 | 0.00 | 90 | 1017.1 |
| 20260901124529 | 72 | 167 | 0.0 | 0.0 | 0.00 | 0.00 | 0.00 | 90 | 1016.9 |
| 20260901124013 | 72 | 167 | 0.0 | 0.0 | 0.00 | 0.00 | 0.00 | 90 | 1016.8 |
| 20260901123514 | 72 | 167 | 0.0 | 0.0 | 0.00 | 0.00 | 0.00 | 89 | 1016.8 |
| 20260901123027 | 72 | 167 | 0.0 | 0.0 | 0.00 | 0.00 | 0.00 | 89 | 1016.8 |
| 20260901122504 | 72 | 167 | 0.0 | 0.0 | 0.00 | 0.00 | 0.00 | 89 | 1016.8 |
| 20260901122015 | 72 | 167 | 0.0 | 0.0 | 0.00 | 0.00 | 0.00 | 89 | 1016.7 |
| 20260901121513 | 72 | 167 | 0.0 | 0.0 | 0.00 | 0.00 | 0.00 | 89 | 1016.6 |
| 20260901121007 | 72 | 167 | 0.0 | 0.0 | 0.00 | 0.00 | 0.00 | 89 | 1016.5 |
| 20260901120520 | 72 | 167 | 0.0 | 0.0 | 0.00 | 0.00 | 0.00 | 89 | 1016.4 |
| 20260901120017 | 72 | 167 | 0.0 | 0.0 | 0.00 | 0.00 | 0.00 | 89 | 1016.3 |
| 20260901115517 | 72 | 167 | 0.0 | 0.0 | 0.00 | 0.00 | 0.00 | 89 | 1016.4 |
| 20260901115014 | 72 | 167 | 0.0 | 0.0 | 0.00 | 0.00 | 0.00 | 89 | 1016.4 |
| 20260901114527 | 72 | 167 | 0.0 | 0.0 | 0.00 | 0.00 | 0.00 | 89 | 1016.4 |
| 20260901114016 | 73 | 167 | 0.0 | 0.0 | 0.00 | 0.00 | 0.00 | 89 | 1016.3 |
| 20260901113514 | 73 | 167 | 0.0 | 0.0 | 0.00 | 0.00 | 0.00 | 89 | 1016.4 |
| 20260901113044 | 73 | 167 | 0.0 | 0.0 | 0.00 | 0.00 | 0.00 | 89 | 1016.4 |
| 20260901112517 | 73 | 167 | 0.0 | 0.0 | 0.00 | 0.00 | 0.00 | 89 | 1016.5 |
| 20260901112017 | 73 | 167 | 0.0 | 0.0 | 0.00 | 0.00 | 0.00 | 89 | 1016.4 |
| 20260901111530 | 73 | 167 | 0.0 | 0.0 | 0.00 | 0.00 | 0.00 | 89 | 1016.4 |
| 20260901111016 | 73 | 167 | 0.0 | 0.0 | 0.00 | 0.00 | 0.00 | 88 | 1016.4 |
| 20260901110506 | 73 | 167 | 0.0 | 0.0 | 0.00 | 0.00 | 0.00 | 88 | 1016.3 |
| 20260901110015 | 73 | 167 | 0.0 | 0.0 | 0.00 | 0.00 | 0.00 | 88 | 1016.4 |
| 20260901105508 | 73 | 167 | 0.0 | 0.0 | 0.00 | 0.00 | 0.00 | 88 | 1016.3 |
| 20260901105011 | 73 | 167 | 0.0 | 0.0 | 0.00 | 0.00 | 0.00 | 88 | 1016.2 |
| 20260901104529 | 73 | 167 | 0.0 | 0.0 | 0.00 | 0.00 | 0.00 | 87 | 1016.2 |
| 20260901104018 | 73 | 167 | 0.0 | 0.0 | 0.00 | 0.00 | 0.00 | 87 | 1016.1 |
| 20260901103514 | 73 | 167 | 0.0 | 0.0 | 0.00 | 0.00 | 0.00 | 87 | 1016.1 |
| 20260901103028 | 73 | 167 | 0.0 | 0.0 | 0.00 | 0.00 | 0.00 | 87 | 1016.2 |
| 20260901102517 | 73 | 167 | 0.0 | 0.0 | 0.00 | 0.00 | 0.00 | 86 | 1016.0 |
| 20260901102015 | 73 | 167 | 0.0 | 0.0 | 0.00 | 0.00 | 0.00 | 86 | 1016.0 |
| 20260901101546 | 73 | 167 | 0.0 | 0.0 | 0.00 | 0.00 | 0.00 | 86 | 1015.9 |
| 20260901101019 | 73 | 167 | 0.0 | 0.0 | 0.00 | 0.00 | 0.00 | 86 | 1015.9 |
| 20260901100517 | 74 | 167 | 0.0 | 0.0 | 0.00 | 0.00 | 0.00 | 87 | 1016.1 |
| 20260901100035 | 74 | 167 | 0.0 | 0.0 | 0.00 | 0.00 | 0.00 | 87 | 1016.1 |
| 20260901095517 | 74 | 167 | 0.0 | 0.0 | 0.00 | 0.00 | 0.00 | 86 | 1016.0 |
| 20260901095011 | 74 | 167 | 0.0 | 0.0 | 0.00 | 0.00 | 0.00 | 86 | 1016.0 |
| 20260901094533 | 74 | 167 | 0.0 | 0.0 | 0.00 | 0.00 | 0.00 | 87 | 1016.0 |
| 20260901094020 | 74 | 167 | 0.0 | 0.0 | 0.00 | 0.00 | 0.00 | 86 | 1016.2 |
| 20260901093515 | 74 | 173 | 0.0 | 0.0 | 0.00 | 0.00 | 0.00 | 87 | 1016.2 |
| 20260901093025 | 74 | 173 | 0.0 | 0.0 | 0.00 | 0.00 | 0.00 | 87 | 1016.2 |
| 20260901092519 | 75 | 170 | 0.0 | 0.0 | 0.00 | 0.00 | 0.00 | 87 | 1016.2 |
| 20260901092014 | 75 | 169 | 0.0 | 0.0 | 0.00 | 0.00 | 0.00 | 86 | 1016.2 |
| 20260901091504 | 75 | 169 | 0.0 | 0.0 | 0.00 | 0.00 | 0.00 | 86 | 1016.3 |
| 20260901091005 | 75 | 170 | 0.0 | 0.0 | 0.00 | 0.00 | 0.00 | 85 | 1016.3 |
| 20260901090503 | 75 | 169 | 0.0 | 0.0 | 0.00 | 0.00 | 0.00 | 85 | 1016.3 |
| 20260901090007 | 75 | 169 | 0.0 | 0.0 | 0.00 | 0.00 | 0.00 | 84 | 1016.2 |
| 20260901085507 | 75 | 169 | 0.0 | 0.0 | 0.00 | 0.00 | 0.00 | 84 | 1016.2 |
| 20260901085008 | 75 | 169 | 0.0 | 0.0 | 0.00 | 0.00 | 0.00 | 83 | 1016.2 |
| 20260901084526 | 75 | 169 | 0.0 | 0.0 | 0.00 | 0.00 | 0.00 | 83 | 1016.2 |
| 20260901084023 | 75 | 169 | 0.0 | 0.0 | 0.00 | 0.00 | 0.00 | 83 | 1016.1 |
| 20260901083521 | 75 | 169 | 0.0 | 0.0 | 0.00 | 0.00 | 0.00 | 82 | 1016.1 |
| 20260901083018 | 75 | 169 | 0.0 | 0.0 | 0.00 | 0.00 | 0.00 | 82 | 1016.1 |
| 20260901082512 | 76 | 169 | 0.0 | 0.0 | 0.00 | 0.00 | 0.00 | 82 | 1016.2 |
| 20260901082013 | 76 | 169 | 0.0 | 0.0 | 0.00 | 0.00 | 0.00 | 83 | 1016.2 |
| 20260901081527 | 76 | 213 | 0.0 | 0.0 | 0.00 | 0.00 | 0.00 | 83 | 1016.1 |
| 20260901081005 | 76 | 360 | 0.0 | 0.0 | 0.00 | 0.00 | 0.00 | 82 | 1016.2 |
| 20260901080503 | 76 | 360 | 0.0 | 0.0 | 0.00 | 0.00 | 0.00 | 82 | 1016.2 |
| 20260901080006 | 76 | 360 | 0.0 | 0.0 | 0.00 | 0.00 | 0.00 | 82 | 1016.2 |
| 20260901075504 | 76 | 211 | 0.0 | 0.0 | 0.00 | 0.00 | 0.00 | 81 | 1016.2 |
| 20260901075004 | 77 | 192 | 0.0 | 0.0 | 0.00 | 0.00 | 0.00 | 81 | 1016.1 |
| 20260901074509 | 77 | 193 | 0.0 | 0.0 | 0.00 | 0.00 | 0.00 | 81 | 1016.1 |
| 20260901074008 | 77 | 192 | 0.0 | 0.0 | 0.00 | 0.00 | 0.00 | 81 | 1016.1 |
| 20260901073518 | 77 | 192 | 0.0 | 0.0 | 0.00 | 0.00 | 0.00 | 81 | 1016.1 |
| 20260901073037 | 77 | 191 | 0.0 | 0.0 | 0.00 | 0.00 | 0.00 | 81 | 1016.0 |
| 20260901072510 | 77 | 190 | 0.0 | 0.0 | 0.00 | 0.00 | 0.00 | 80 | 1015.9 |